O3B PFM
Last updated on Wed Jun 24 2026 00:03:25 GMT+0000 (Coordinated Universal Time)
1 39191U 13031D 26173.63607857 -.00000022 00000+0 00000+0 0 9995
2 39191 0.0675 350.9613 0005352 93.5147 275.5834 5.00116070236942
Next 0 passes for location: London (51.5072 / 0.1276)
No passes found over London.